TimePDT,TemperatureF,Dew PointF,Humidity,Sea Level PressureIn,VisibilityMPH,Wind Direction,Wind SpeedMPH,Gust SpeedMPH,PrecipitationIn,Events,Conditions,WindDirDegrees,DateUTC
12:00 AM,41.0,39.2,93,29.57,8.0,East,10.4,-,N/A,Rain,Light Rain,90,2013-03-20 07:00:00
1:00 AM,42.8,41.0,93,29.52,8.0,East,11.5,-,N/A,Rain,Light Rain,80,2013-03-20 08:00:00
2:00 AM,42.8,41.0,93,29.49,10.0,East,15.0,-,N/A,Rain,Light Rain,90,2013-03-20 09:00:00
3:00 AM,42.8,41.0,93,29.47,10.0,East,18.4,-,N/A,Rain,Light Rain,100,2013-03-20 10:00:00
4:00 AM,42.8,41.0,93,29.43,10.0,East,18.4,-,N/A,Rain,Light Rain,90,2013-03-20 11:00:00
5:00 AM,44,42,89,29.40,10,East,17.3,,,Rain,Light Rain,90,2013-03-20 12:00:00
5:00 AM,42.8,41.0,93,29.40,10.0,East,17.3,-,N/A,Rain,Light Rain,100,2013-03-20 12:00:00
6:00 AM,44.6,42.8,93,29.36,10.0,East,15.0,-,N/A,Rain,Light Rain,90,2013-03-20 13:00:00
7:00 AM,44.6,42.8,93,29.32,8.0,East,13.8,20.7,N/A,Rain,Light Rain,90,2013-03-20 14:00:00
7:07 AM,44.6,-9999,N/A,-9999,6.0,East,15.0,-,N/A,Rain,Light Rain,90,2013-03-20 14:07:00
7:19 AM,44.6,-9999,N/A,-9999,6.0,East,16.1,-,N/A,Rain,Light Rain,90,2013-03-20 14:19:00
7:20 AM,44.6,-9999,N/A,-9999,8.0,East,16.1,-,N/A,Rain,Light Rain,90,2013-03-20 14:20:00
8:00 AM,44.6,42.8,93,29.31,12.0,East,17.3,-,N/A,Rain,Light Rain,90,2013-03-20 15:00:00
8:10 AM,44.6,-9999,N/A,-9999,12.0,East,15.0,-,N/A,Rain,Light Rain,90,2013-03-20 15:10:00
8:37 AM,48.2,-9999,N/A,-9999,6.0,SE,24.2,29.9,N/A,Rain,Light Rain,140,2013-03-20 15:37:00
8:50 AM,48.2,-9999,N/A,-9999,8.0,SE,24.2,29.9,N/A,Rain,Light Rain,130,2013-03-20 15:50:00
9:00 AM,48.2,46.4,93,29.30,12.0,ESE,18.4,25.3,N/A,Rain,Light Rain,120,2013-03-20 16:00:00
10:00 AM,50.0,46.4,87,29.32,15.0,SSE,21.9,-,N/A,,Overcast,150,2013-03-20 17:00:00
11:00 AM,52,44,68,29.36,15,South,21.9,,,,Partly Cloudy,180,2013-03-20 18:00:00
11:00 AM,51.8,44.6,76,29.36,15.0,South,21.9,28.8,N/A,,Partly Cloudy,180,2013-03-20 18:00:00
12:00 PM,53.6,41.0,62,29.39,20.0,South,20.7,31.1,N/A,,Partly Cloudy,180,2013-03-20 19:00:00
1:00 PM,51.8,39.2,62,29.42,20.0,South,20.7,29.9,N/A,,Partly Cloudy,180,2013-03-20 20:00:00
2:00 PM,51.8,39.2,62,29.45,20.0,South,20.7,33.4,N/A,,Mostly Cloudy,180,2013-03-20 21:00:00
3:00 PM,50.0,37.4,62,29.47,20.0,SSW,18.4,25.3,N/A,,Overcast,200,2013-03-20 22:00:00
3:45 PM,48.2,-9999,N/A,-9999,15.0,SSW,21.9,34.5,N/A,Rain,Light Rain,200,2013-03-20 22:45:00
4:00 PM,48.2,35.6,62,29.50,15.0,SSW,25.3,31.1,N/A,Rain,Light Rain,210,2013-03-20 23:00:00
5:00 PM,45,37,66,29.57,10,WSW,32.2,,,Rain,Light Rain,250,2013-03-21 00:00:00
5:00 PM,44.6,37.4,76,29.57,10.0,West,39.1,47.2,N/A,Rain,Light Rain,260,2013-03-21 00:00:00
5:05 PM,42.8,-9999,N/A,-9999,6.0,West,33.4,49.5,N/A,Rain,Light Rain,270,2013-03-21 00:05:00
5:09 PM,42.8,-9999,N/A,-9999,8.0,West,34.5,49.5,N/A,Rain,Light Rain,270,2013-03-21 00:09:00
6:00 PM,41.0,39.2,93,29.66,15.0,WNW,24.2,33.4,N/A,Rain,Light Rain,290,2013-03-21 01:00:00
7:00 PM,41.0,39.2,93,29.70,10.0,NW,23.0,-,N/A,Rain,Light Rain,310,2013-03-21 02:00:00
7:43 PM,41.0,-9999,N/A,-9999,15.0,WNW,12.7,18.4,N/A,,Mostly Cloudy,290,2013-03-21 02:43:00
8:00 PM,41.0,37.4,87,29.74,15.0,NW,12.7,-,N/A,,Overcast,310,2013-03-21 03:00:00
8:37 PM,41.0,-9999,N/A,-9999,8.0,West,15.0,23.0,N/A,Rain,Light Rain,280,2013-03-21 03:37:00
9:00 PM,41.0,37.4,87,29.80,8.0,NW,16.1,-,N/A,Rain,Light Rain,310,2013-03-21 04:00:00
10:00 PM,39.2,35.6,87,29.86,12.0,WNW,28.8,39.1,N/A,Rain,Light Rain,300,2013-03-21 05:00:00
10:57 PM,39.2,-9999,N/A,-9999,15.0,NW,19.6,25.3,N/A,,Overcast,310,2013-03-21 05:57:00
11:00 PM,39,34,77,29.89,15,NW,21.9,,,Rain,Light Rain,310,2013-03-21 06:00:00
11:00 PM,39.2,33.8,81,29.89,15.0,NW,20.7,-,N/A,,Overcast,310,2013-03-21 06:00:00